Location: McCall
(45.0000°N, 116.0000°W)
Time: 11:39:21
(UTC-06:00)

Saudisat 1A - Visible Passes

Search period start: 22 August 2014 00:00
Search period end: 01 September 2014 00:00
Orbit: 600 x 607 km, 64.6° (Epoch: 22 August)

Date Brightness Start Highest point End Pass type
(mag) Time Alt. Az. Time Alt. Az. Time Alt. Az.
22 Aug 9.8 02:48:55 30° NNE 02:48:55 30° NNE 02:51:15 10° NNE visible
22 Aug 10.3 04:25:43 13° NW 04:27:13 15° NNW 04:29:42 10° N visible
23 Aug 9.8 03:00:51 30° N 03:00:51 30° N 03:03:29 10° NNE visible
23 Aug 10.7 04:39:20 10° NW 04:40:04 10° NNW 04:40:49 10° NNW visible
24 Aug 10.8 01:35:58 12° NE 01:35:58 12° NE 01:36:20 10° NE visible
24 Aug 10.0 03:12:45 24° NNW 03:12:45 24° NNW 03:15:36 10° NNE visible
25 Aug 10.6 01:47:51 16° NE 01:47:51 16° NE 01:48:49 10° NE visible
25 Aug 10.3 03:24:38 17° NW 03:24:38 17° NW 03:27:33 10° N visible
26 Aug 10.5 01:59:42 20° NNE 01:59:42 20° NNE 02:01:08 10° NNE visible
26 Aug 10.7 03:36:29 12° NW 03:37:23 12° NNW 03:39:11 10° N visible
27 Aug 10.5 02:11:32 20° N 02:11:32 20° N 02:13:18 10° NNE visible
28 Aug 10.6 02:23:19 18° NNW 02:23:19 18° NNW 02:25:19 10° NNE visible
29 Aug 10.9 00:58:18 13° NNE 00:58:18 13° NNE 00:58:43 10° NNE visible
29 Aug 10.8 02:35:05 14° NNW 02:35:05 14° NNW 02:37:09 10° N visible
30 Aug 10.8 01:10:02 15° NNE 01:10:02 15° NNE 01:10:57 10° NNE visible
30 Aug 11.0 02:46:58 10° NNW 02:47:34 10° NNW 02:48:10 10° NNW visible
30 Aug 11.2 06:10:29 10° NNE 06:11:18 10° NNE 06:12:08 10° NE visible
31 Aug 10.8 01:21:42 17° N 01:21:42 17° N 01:23:03 10° NNE visible
31 Aug 10.9 06:21:39 10° N 06:24:09 15° NNE 06:26:39 10° ENE visible
